Time,TemperatureF,DewpointF,PressureIn,WindDirection,WindDirectionDegrees,WindSpeedMPH,WindSpeedGustMPH,Humidity,HourlyPrecipIn,Conditions,Clouds,dailyrainin,SoftwareType,DateUTC
2013-10-08 00:02:00,51.0,48.0,30.29,South,187,0.0,0.0,89,0.00,,,-99.99,,2013-10-08 07:02:00,
2013-10-08 00:11:00,51.0,48.0,30.29,South,187,0.0,0.0,89,0.00,,,-99.99,,2013-10-08 07:11:00,
2013-10-08 00:21:00,50.0,47.0,30.29,South,187,0.0,0.0,90,0.00,,,0.00,,2013-10-08 07:21:00,
2013-10-08 00:31:00,50.0,47.0,30.29,South,187,0.0,0.0,90,0.00,,,0.00,,2013-10-08 07:31:00,
2013-10-08 00:52:00,49.0,46.0,30.29,South,187,0.0,0.0,90,0.00,,,0.00,,2013-10-08 07:52:00,
2013-10-08 01:02:00,49.0,46.0,30.29,South,187,0.0,0.0,90,0.00,,,0.00,,2013-10-08 08:02:00,
2013-10-08 01:12:00,49.0,46.0,30.29,South,187,0.0,0.0,90,0.00,,,0.00,,2013-10-08 08:12:00,
2013-10-08 01:21:00,49.0,46.0,30.29,South,187,0.0,0.0,90,0.00,,,0.00,,2013-10-08 08:21:00,
2013-10-08 01:32:00,49.0,46.0,30.29,South,187,0.0,0.0,90,0.00,,,0.00,,2013-10-08 08:32:00,
2013-10-08 01:52:00,48.0,45.0,30.29,South,187,0.0,0.0,91,0.00,,,0.00,,2013-10-08 08:52:00,
2013-10-08 02:01:00,48.0,45.0,30.29,South,187,0.0,0.0,91,0.00,,,0.00,,2013-10-08 09:01:00,
2013-10-08 02:21:00,48.0,45.0,30.29,South,187,0.0,0.0,91,0.00,,,0.00,,2013-10-08 09:21:00,
2013-10-08 02:33:00,48.0,45.0,30.29,South,187,0.0,0.0,91,0.00,,,0.00,,2013-10-08 09:33:00,
2013-10-08 02:53:00,48.0,46.0,30.29,South,187,0.0,0.0,92,0.00,,,0.00,,2013-10-08 09:53:00,
2013-10-08 03:03:00,48.0,46.0,30.29,South,187,0.0,0.0,92,0.00,,,0.00,,2013-10-08 10:03:00,
2013-10-08 03:12:00,48.0,46.0,30.29,South,187,0.0,0.0,92,0.00,,,0.00,,2013-10-08 10:12:00,
2013-10-08 03:23:00,48.0,46.0,30.29,South,187,0.0,0.0,92,0.00,,,0.00,,2013-10-08 10:23:00,
2013-10-08 03:32:00,48.0,46.0,30.29,South,187,0.0,0.0,92,0.00,,,0.00,,2013-10-08 10:32:00,
2013-10-08 03:53:00,49.0,47.0,30.29,South,188,0.0,0.0,93,0.00,,,0.00,,2013-10-08 10:53:00,
2013-10-08 04:02:00,49.0,47.0,30.29,South,188,0.0,0.0,93,0.00,,,0.00,,2013-10-08 11:02:00,
2013-10-08 04:12:00,49.0,47.0,30.29,South,188,0.0,0.0,93,0.00,,,0.00,,2013-10-08 11:12:00,
2013-10-08 04:21:00,49.0,47.0,30.29,South,188,0.0,0.0,93,0.01,,,0.01,,2013-10-08 11:21:00,
2013-10-08 04:33:00,49.0,47.0,30.29,South,188,0.0,0.0,93,0.01,,,0.01,,2013-10-08 11:33:00,
2013-10-08 04:42:00,49.0,47.0,30.29,South,188,0.0,0.0,93,0.01,,,0.01,,2013-10-08 11:42:00,
2013-10-08 04:52:00,49.0,47.0,30.28,SE,139,0.0,0.0,93,0.01,,,0.01,,2013-10-08 11:52:00,
2013-10-08 05:01:00,49.0,47.0,30.28,SE,139,0.0,0.0,93,0.01,,,0.01,,2013-10-08 12:01:00,
2013-10-08 05:12:00,49.0,47.0,30.28,SE,139,0.0,0.0,93,0.01,,,0.01,,2013-10-08 12:12:00,
2013-10-08 05:21:00,49.0,47.0,30.28,SE,139,0.0,0.0,94,0.00,,,0.01,,2013-10-08 12:21:00,
2013-10-08 05:31:00,49.0,47.0,30.28,SE,139,0.0,0.0,94,0.00,,,0.01,,2013-10-08 12:31:00,
2013-10-08 05:52:00,50.0,48.0,30.27,SE,139,0.0,0.0,93,0.00,,,0.01,,2013-10-08 12:52:00,
2013-10-08 06:11:00,50.0,48.0,30.27,SE,139,0.0,0.0,93,0.00,,,0.01,,2013-10-08 13:11:00,
2013-10-08 06:22:00,49.0,47.0,30.27,SE,139,0.0,1.0,93,0.00,,,0.01,,2013-10-08 13:22:00,
2013-10-08 06:32:00,49.0,47.0,30.27,SE,139,0.0,1.0,93,0.00,,,0.01,,2013-10-08 13:32:00,
2013-10-08 06:42:00,49.0,47.0,30.27,SE,139,0.0,1.0,93,0.00,,,0.01,,2013-10-08 13:42:00,
2013-10-08 06:52:00,49.0,47.0,30.26,SE,139,0.0,0.0,93,0.00,,,0.01,,2013-10-08 13:52:00,
2013-10-08 07:02:00,49.0,47.0,30.26,SE,139,0.0,0.0,93,0.00,,,0.01,,2013-10-08 14:02:00,
2013-10-08 07:21:00,49.0,47.0,30.25,SE,139,0.0,0.0,93,0.00,,,0.01,,2013-10-08 14:21:00,
2013-10-08 07:32:00,49.0,47.0,30.25,SE,139,0.0,0.0,93,0.00,,,0.01,,2013-10-08 14:32:00,
2013-10-08 07:52:00,49.0,47.0,30.26,SE,139,0.0,0.0,94,0.00,,,0.01,,2013-10-08 14:52:00,
2013-10-08 08:01:00,49.0,47.0,30.26,SE,139,0.0,0.0,94,0.00,,,0.01,,2013-10-08 15:01:00,
2013-10-08 08:22:00,49.0,47.0,30.26,SE,139,0.0,0.0,93,0.00,,,0.01,,2013-10-08 15:22:00,
2013-10-08 08:33:00,49.0,47.0,30.26,SE,139,0.0,0.0,93,0.00,,,0.01,,2013-10-08 15:33:00,
2013-10-08 08:44:00,49.0,47.0,30.26,SE,139,0.0,0.0,93,0.00,,,0.01,,2013-10-08 15:44:00,
2013-10-08 08:53:00,50.0,48.0,30.27,SE,146,0.0,0.0,94,0.00,,,0.01,,2013-10-08 15:53:00,
2013-10-08 09:03:00,50.0,48.0,30.27,SE,146,0.0,0.0,94,0.00,,,0.01,,2013-10-08 16:03:00,
2013-10-08 09:13:00,50.0,48.0,30.27,SE,146,0.0,0.0,94,0.00,,,0.01,,2013-10-08 16:13:00,
2013-10-08 09:23:00,50.0,48.0,30.26,SE,146,0.0,1.0,94,0.00,,,0.01,,2013-10-08 16:23:00,
2013-10-08 09:33:00,50.0,48.0,30.26,SE,146,0.0,1.0,94,0.00,,,0.01,,2013-10-08 16:33:00,
2013-10-08 09:42:00,50.0,48.0,30.26,SE,146,0.0,1.0,94,0.00,,,0.01,,2013-10-08 16:42:00,
2013-10-08 09:53:00,51.0,49.0,30.25,South,187,0.0,3.0,94,0.00,,,0.01,,2013-10-08 16:53:00,
2013-10-08 10:02:00,51.0,49.0,30.25,South,187,0.0,3.0,94,0.00,,,0.01,,2013-10-08 17:02:00,
2013-10-08 10:22:00,52.0,50.0,30.25,South,186,0.0,1.0,92,0.00,,,0.01,,2013-10-08 17:22:00,
2013-10-08 10:33:00,52.0,50.0,30.25,South,186,0.0,1.0,92,0.00,,,0.01,,2013-10-08 17:33:00,
2013-10-08 10:42:00,52.0,50.0,30.25,South,186,0.0,1.0,92,0.00,,,0.01,,2013-10-08 17:42:00,
2013-10-08 10:52:00,54.0,51.0,30.24,South,188,0.0,0.0,90,0.00,,,0.01,,2013-10-08 17:52:00,
2013-10-08 11:01:00,54.0,51.0,30.24,South,188,0.0,0.0,90,0.00,,,0.01,,2013-10-08 18:01:00,
2013-10-08 11:22:00,54.0,51.0,30.24,South,188,0.0,1.0,90,0.00,,,0.01,,2013-10-08 18:22:00,
2013-10-08 11:32:00,54.0,51.0,30.24,South,188,0.0,1.0,90,0.00,,,0.01,,2013-10-08 18:32:00,
2013-10-08 11:42:00,54.0,51.0,30.24,South,188,0.0,1.0,90,0.00,,,0.01,,2013-10-08 18:42:00,
2013-10-08 11:53:00,55.0,52.0,30.24,South,188,0.0,1.0,89,0.00,,,0.01,,2013-10-08 18:53:00,
2013-10-08 12:02:00,55.0,52.0,30.24,South,188,0.0,1.0,89,0.00,,,0.01,,2013-10-08 19:02:00,
2013-10-08 12:11:00,55.0,52.0,30.24,South,188,0.0,1.0,89,0.00,,,0.01,,2013-10-08 19:11:00,
2013-10-08 12:21:00,56.0,52.0,30.23,SE,128,0.0,1.0,87,0.00,,,0.01,,2013-10-08 19:21:00,
2013-10-08 12:31:00,56.0,52.0,30.23,SE,128,0.0,1.0,87,0.00,,,0.01,,2013-10-08 19:31:00,
2013-10-08 12:42:00,56.0,52.0,30.23,SE,128,0.0,1.0,87,0.00,,,0.01,,2013-10-08 19:42:00,
2013-10-08 12:52:00,56.0,53.0,30.22,SE,145,0.0,3.0,89,0.01,,,0.02,,2013-10-08 19:52:00,
2013-10-08 13:02:00,56.0,53.0,30.22,SE,145,0.0,3.0,89,0.01,,,0.02,,2013-10-08 20:02:00,
2013-10-08 13:22:00,57.0,53.0,30.21,SSE,168,0.0,3.0,88,0.01,,,0.02,,2013-10-08 20:22:00,
2013-10-08 13:32:00,57.0,53.0,30.21,SSE,168,0.0,3.0,88,0.01,,,0.02,,2013-10-08 20:32:00,
2013-10-08 13:42:00,57.0,53.0,30.21,SSE,168,0.0,3.0,88,0.01,,,0.02,,2013-10-08 20:42:00,
2013-10-08 13:52:00,57.0,52.0,30.19,SW,215,1.0,4.0,84,0.00,,,0.02,,2013-10-08 20:52:00,
2013-10-08 14:01:00,57.0,52.0,30.19,SW,215,1.0,4.0,84,0.00,,,0.02,,2013-10-08 21:01:00,
2013-10-08 14:21:00,57.0,53.0,30.19,SW,215,0.0,3.0,86,0.02,,,0.04,,2013-10-08 21:21:00,
2013-10-08 14:33:00,57.0,53.0,30.19,SW,215,0.0,3.0,86,0.02,,,0.04,,2013-10-08 21:33:00,
2013-10-08 14:44:00,57.0,53.0,30.19,SW,215,0.0,3.0,86,0.02,,,0.04,,2013-10-08 21:44:00,
2013-10-08 14:54:00,57.0,53.0,30.17,SSW,201,0.0,2.0,88,0.06,,,0.08,,2013-10-08 21:54:00,
2013-10-08 15:03:00,57.0,53.0,30.17,SSW,201,0.0,2.0,88,0.06,,,0.08,,2013-10-08 22:03:00,
2013-10-08 15:24:00,57.0,53.0,30.16,SSW,201,0.0,1.0,88,0.06,,,0.10,,2013-10-08 22:24:00,
2013-10-08 15:32:00,57.0,53.0,30.16,SSW,201,0.0,1.0,88,0.06,,,0.10,,2013-10-08 22:32:00,
2013-10-08 15:48:00,57.0,53.0,30.16,SSW,201,0.0,1.0,88,0.06,,,0.10,,2013-10-08 22:48:00,
2013-10-08 15:56:00,56.0,52.0,30.16,ESE,102,0.0,4.0,87,0.02,,,0.10,,2013-10-08 22:56:00,
2013-10-08 16:03:00,56.0,52.0,30.16,ESE,102,0.0,4.0,87,0.02,,,0.10,,2013-10-08 23:03:00,
2013-10-08 16:22:00,56.0,52.0,30.16,SSE,160,0.0,2.0,88,0.00,,,0.10,,2013-10-08 23:22:00,
2013-10-08 16:34:00,56.0,52.0,30.16,SSE,160,0.0,2.0,88,0.00,,,0.10,,2013-10-08 23:34:00,
2013-10-08 16:52:00,56.0,52.0,30.16,SSE,164,0.0,2.0,86,0.00,,,0.10,,2013-10-08 23:52:00,
2013-10-08 17:02:00,56.0,52.0,30.16,SSE,164,0.0,2.0,86,0.00,,,0.10,,2013-10-09 00:02:00,
2013-10-08 17:12:00,56.0,52.0,30.16,SSE,164,0.0,2.0,86,0.00,,,0.10,,2013-10-09 00:12:00,
2013-10-08 17:22:00,56.0,52.0,30.16,SSE,164,0.0,2.0,86,0.01,,,0.11,,2013-10-09 00:22:00,
2013-10-08 17:32:00,56.0,52.0,30.16,SSE,164,0.0,2.0,86,0.01,,,0.11,,2013-10-09 00:32:00,
2013-10-08 17:43:00,56.0,52.0,30.16,SSE,164,0.0,2.0,86,0.01,,,0.11,,2013-10-09 00:43:00,
2013-10-08 17:52:00,55.0,52.0,30.15,SSE,164,0.0,0.0,88,0.03,,,0.13,,2013-10-09 00:52:00,
2013-10-08 18:01:00,55.0,52.0,30.15,SSE,164,0.0,0.0,88,0.03,,,0.13,,2013-10-09 01:01:00,
2013-10-08 18:12:00,55.0,52.0,30.15,SSE,164,0.0,0.0,88,0.03,,,0.13,,2013-10-09 01:12:00,
2013-10-08 18:21:00,55.0,52.0,30.14,SSE,163,0.0,0.0,89,0.02,,,0.13,,2013-10-09 01:21:00,
2013-10-08 18:32:00,55.0,52.0,30.14,SSE,163,0.0,0.0,89,0.02,,,0.13,,2013-10-09 01:32:00,
2013-10-08 18:43:00,55.0,52.0,30.14,SSE,163,0.0,0.0,89,0.02,,,0.13,,2013-10-09 01:43:00,
2013-10-08 18:52:00,55.0,52.0,30.13,SSE,163,0.0,0.0,90,0.00,,,0.13,,2013-10-09 01:52:00,
2013-10-08 19:02:00,55.0,52.0,30.13,SSE,163,0.0,0.0,90,0.00,,,0.13,,2013-10-09 02:02:00,
2013-10-08 19:22:00,54.0,51.0,30.13,SSE,163,0.0,0.0,90,0.00,,,0.13,,2013-10-09 02:22:00,
2013-10-08 19:32:00,54.0,51.0,30.13,SSE,163,0.0,0.0,90,0.00,,,0.13,,2013-10-09 02:32:00,
2013-10-08 19:42:00,54.0,51.0,30.13,SSE,163,0.0,0.0,90,0.00,,,0.13,,2013-10-09 02:42:00,
2013-10-08 19:52:00,53.0,50.0,30.13,SSE,163,0.0,0.0,91,0.00,,,0.13,,2013-10-09 02:52:00,
2013-10-08 20:02:00,53.0,50.0,30.13,SSE,163,0.0,0.0,91,0.00,,,0.13,,2013-10-09 03:02:00,
2013-10-08 20:23:00,53.0,50.0,30.14,SSE,163,0.0,1.0,91,0.00,,,0.13,,2013-10-09 03:23:00,
2013-10-08 20:34:00,53.0,50.0,30.14,SSE,163,0.0,1.0,91,0.00,,,0.13,,2013-10-09 03:34:00,
2013-10-08 20:45:00,53.0,50.0,30.14,SSE,163,0.0,1.0,91,0.00,,,0.13,,2013-10-09 03:45:00,
2013-10-08 20:54:00,52.0,50.0,30.13,SSE,163,0.0,0.0,92,0.00,,,0.13,,2013-10-09 03:54:00,
2013-10-08 21:05:00,52.0,50.0,30.13,SSE,163,0.0,0.0,92,0.00,,,0.13,,2013-10-09 04:05:00,
2013-10-08 21:14:00,52.0,50.0,30.13,SSE,163,0.0,0.0,92,0.00,,,0.13,,2013-10-09 04:14:00,
2013-10-08 21:23:00,52.0,50.0,30.13,SSE,163,0.0,0.0,92,0.00,,,0.13,,2013-10-09 04:23:00,
2013-10-08 21:34:00,51.0,49.0,30.12,SSE,162,0.0,0.0,92,0.00,,,0.13,,2013-10-09 04:34:00,
2013-10-08 21:44:00,52.0,50.0,30.13,SSE,162,0.0,1.0,92,0.00,,,0.13,,2013-10-09 04:44:00,
2013-10-08 21:54:00,51.0,49.0,30.12,SSE,162,0.0,0.0,92,0.00,,,0.13,,2013-10-09 04:54:00,
2013-10-08 22:04:00,51.0,49.0,30.12,SSE,162,0.0,0.0,92,0.00,,,0.13,,2013-10-09 05:04:00,
2013-10-08 22:13:00,51.0,49.0,30.12,SSE,162,0.0,0.0,92,0.00,,,0.13,,2013-10-09 05:13:00,
2013-10-08 22:22:00,51.0,49.0,30.12,SSE,162,0.0,0.0,92,0.00,,,0.13,,2013-10-09 05:22:00,